Вернуться в каталог

COSMOS 1275 DEB

АктивенPO
NORAD 12676·DEBRIS·🇷🇺 Russia

Запущен Jun 4, 1981 с Plesetsk Cosmodrome

Loading…

Ближайшие Пролёты (ближайшие 24 часа)

TLE

СвежийSource: Space-Track

Эпоха: Sep 14, 2026, 09:49 UTC

1 12676U 81053AG  26257.40906337  .00000373  00000-0  30396-3 0  9990
2 12676  82.9423  53.1207 0043416 203.6434 185.2276 13.86894894273092

Отслеживайте COSMOS 1275 DEB в реальном времени с AllMySat

Download on the App Store